Printer-friendly version
Follow the MPC on Twitter Follow the MPC on Facebook The MPC blog
Minor Planet Center

MPEC 2004-T30 : 2004 TD10

The following Minor Planet Electronic Circular may be linked-to from your own Web pages, but must not otherwise be redistributed electronically.

A form allowing access to any MPEC is at the bottom of this page.


Read MPEC 2004-T29 Read MPEC 2004-T31


M.P.E.C. 2004-T30                                Issued 2004 Oct.  9, 14:40 UT

     The Minor Planet Electronic Circulars contain information on unusual
         minor planets and routine data on comets.  They are published
   on behalf of Commission 20 of the International Astronomical Union by the
          Minor Planet Center, Smithsonian Astrophysical Observatory,
                          Cambridge, MA 02138, U.S.A.

                  Supported in part by the Brinson Foundation
             Prepared using the Tamkin Foundation Computer Network

                              MPC@CFA.HARVARD.EDU
          URL http://cfa-www.harvard.edu/iau/mpc.html  ISSN 1523-6714

                                   2004 TD10

Observations:
     K04T10D* C2004 10 07.33877 03 21 15.11 -00 11 04.8          18.3   ET030704
     K04T10D  C2004 10 07.34939 03 21 10.37 -00 11 46.5          18.6   ET030704
     K04T10D  C2004 10 07.36001 03 21 05.68 -00 12 28.5          18.5   ET030704
     K04T10D  C2004 10 07.37063 03 21 00.96 -00 13 10.5          18.4   ET030704
     K04T10D  C2004 10 07.38127 03 20 56.21 -00 13 52.6          18.3   ET030704
     K04T10D  C2004 10 08.36673 03 13 49.01 -01 22 00.4          18.4   ET030704
     K04T10D  C2004 10 08.37759 03 13 43.58 -01 22 47.7          18.4   ET030704
     K04T10D  C2004 10 08.38844 03 13 38.15 -01 23 35.4          18.4   ET030704
     K04T10D  C2004 10 08.39929 03 13 32.74 -01 24 22.6          18.3   ET030704
     K04T10D  C2004 10 08.40709 03 13 28.81 -01 24 56.9          18.4   ET030704
     K04T10D  C2004 10 08.41028 03 13 27.20 -01 25 11.1          18.5   ET030704
     K04T10D  C2004 10 08.41745 03 13 24.02 -01 25 40.1          18.0 R ET030854
     K04T10D  C2004 10 08.42053 03 13 22.05 -01 25 55.7          18.5   ET030704
     K04T10D  C2004 10 08.42223 03 13 21.58 -01 26 01.2          18.0 R ET030854
     K04T10D  C2004 10 08.42343 03 13 21.02 -01 26 06.4          18.0 R ET030854
     K04T10D  C2004 10 08.43571 03 13 14.49 -01 27 02.4          18.4   ET030704
     K04T10D  C2004 10 08.44701 03 13 08.79 -01 27 52.0          18.5   ET030704
     K04T10D 5C2004 10 08.51285 03 12 36.87 -01 32 43.6          18.2 R ET030673
     K04T10D 5C2004 10 08.51447 03 12 36.06 -01 32 50.5                 ET030673
     K04T10D 5C2004 10 08.51690 03 12 34.81 -01 33 00.3                 ET030673
     K04T10D 5C2004 10 08.51829 03 12 34.13 -01 33 06.7                 ET030673
     K04T10D  C2004 10 08.52326 03 12 38.60 -01 31 08.0          18.3 R ET030474
     K04T10D  C2004 10 08.52616 03 12 37.08 -01 31 21.3          17.8 R ET030474
     K04T10D  C2004 10 08.52731 03 12 36.55 -01 31 26.2          17.8 R ET030474
     K04T10D  C2004 10 09.07192 03 08 10.15 -02 15 36.9          18.1 R ET030J95
     K04T10D  C2004 10 09.07899 03 08 06.47 -02 16 11.8          18.5 R ET030J95
     K04T10D  C2004 10 09.08623 03 08 02.58 -02 16 43.7          17.3 R ET030J95
     K04T10D 2C2004 10 09.10931 03 07 56.98 -02 16 05.0          17.8 R ET030I05
     K04T10D 2C2004 10 09.11028 03 07 56.39 -02 16 10.1          17.3 R ET030I05
     K04T10D 2C2004 10 09.11124 03 07 55.86 -02 16 14.7          18.1 R ET030I05
     K04T10D 2C2004 10 09.11222 03 07 55.38 -02 16 19.4          16.8 R ET030I05
     K04T10D  C2004 10 09.23714 03 06 51.10 -02 28 10.8          17.4 R ET030H06
     K04T10D  C2004 10 09.23844 03 06 50.79 -02 28 16.2          17.7 R ET030G90
     K04T10D  C2004 10 09.23924 03 06 50.00 -02 28 20.8          17.3 R ET030H06
     K04T10D  C2004 10 09.24145 03 06 49.18 -02 28 30.5          17.7 R ET030G90
     K04T10D  C2004 10 09.24159 03 06 48.72 -02 28 32.2          17.1 R ET030H06
     K04T10D  C2004 10 09.24447 03 06 47.56 -02 28 45.2          17.6 R ET030G90
     K04T10D  C2004 10 09.30453 03 06 14.33 -02 33 34.5          17.7 R ET030H06
     K04T10D  C2004 10 09.31455 03 06 08.77 -02 34 23.0          17.7 R ET030H06
     K04T10D  C2004 10 09.32338 03 06 03.83 -02 35 05.2          17.6 R ET030H06
     K04T10D  C2004 10 09.37265 03 05 36.12 -02 38 59.9          18.3 R ET030711
     K04T10D  C2004 10 09.37627 03 05 34.08 -02 39 17.4          17.8 R ET030711
     K04T10D  C2004 10 09.37995 03 05 32.01 -02 39 34.9          18.0 R ET030711

Observer details:
474 Mount John Observatory, Lake Tekapo.  Observer A. C. Gilmore.  0.6-m f/6.4
    reflector + CCD.
673 Table Mountain Observatory, Wrightwood.  Observer J. Young.  0.6-m
    reflector + CCD.
704 Lincoln Laboratory ETS, New Mexico.  Observers M. Blythe, F. Shelly,
    M. Bezpalko, R. Huber, L. Manguso, D. Torres, R. Kracke, M. McCleary,
    H. Stange, A. Milner.  Measurers J. Stuart, R. Sayer, J. Evans, J. Kommers.
    1.0-m f/2.15 reflector + CCD.
711 McDonald Observatory.  Observer J. G. Ries.  0.76-m reflector + CCD
    + prime-focus corrector.
854 Sabino Canyon Observatory, Tucson.  Observer J. E. McGaha.  0.36-m f/10.0
    Schmidt-Cassegrain + CCD.
G90 Three Buttes Observatory, Tucson.  Observer G. R. Jones.  0.40-m
    Ritchey-Chretien + CCD.
H06 New Mexico Skies Observatory.  Observers R. Hutsebaut, J. Bedient.
    Measurer R. Hutsebaut.  0.25-m reflector + CCD, 0.30-m reflector + CCD.
I05 Las Campanas Observatory-TIE.  Observers G. Masi, F. Mallia, R. Wilcox.
    Measurer G. Masi.  0.36-m SoTIE reflector + CCD.
J95 Great Shefford.  Observer P. Birtwhistle.  0.30-m f/6.3 Schmidt-Cassegrain
    + CCD.

Orbital elements:
2004 TD10
Epoch 2004 Oct. 2.0 TT = JDT 2453280.5                  MPC
M 198.22542              (2000.0)            P               Q
n   1.51473064     Peri.  136.60562     -0.99534564     +0.09011596
a   0.7508948      Node    48.59718     -0.09607228     -0.90008549
e   0.4427486      Incl.    2.60944     -0.00756115     -0.42629242
P   0.65           H   22.2           G   0.15
From 43 observations 2004 Oct. 7-9.

Ephemeris:
2004 TD10                a,e,i = 0.75, 0.44, 3                   q = 0.4184
Date    TT    R. A. (2000) Decl.     Delta      r     Elong.  Phase     V
2004 10 02    03 48.16   +04 20.6    0.108    1.075   131.4    44.3    19.2
2004 10 07    03 23.48   +00 11.7    0.085    1.067   141.7    35.5    18.4
2004 10 12    02 38.78   -06 40.3    0.064    1.056   153.7    24.7    17.5
2004 10 17    01 17.72   -17 12.1    0.051    1.042   153.4    25.4    17.0
2004 10 22    23 16.80   -27 01.0    0.049    1.026   127.2    50.6    17.6
2004 10 27    21 26.05   -29 33.5    0.060    1.006   100.3    76.3    18.8
2004 11 01    20 16.59   -28 08.5    0.077    0.984    81.2    94.3    20.0
2004 11 06    19 34.85   -26 13.9    0.097    0.958    67.4   107.2    21.0
2004 11 11    19 07.06   -24 37.6    0.118    0.930    56.4   117.6    22.1

Kyle E. Smalley              (C) Copyright 2004 MPC           M.P.E.C. 2004-T30

Read MPEC 2004-T29 Read MPEC 2004-T31


MPEC number:

Enter an MPEC number in one of the following forms:

  • 1997-B01 (the full form)
  • J97B01 (the packed version of the full form)
  • B01 (the abbreviated form)

Valid HTML 4.01!